Location: Marengo
(51.4813°N, 109.7825°W)
Time: 01:57:19
(UTC+00:00)

BlueWalker 3 - Pass Details

Date: 02 December 2022
Orbit: 499 x 517 km, 53.2° (Epoch: 26 January)

Event Time Altitude Azimuth Distance (km) Brightness Sun altitude
Rises 23:43:44 0° 253° (WSW) 2,633 7.7 -4.9°
Reaches altitude 10° 23:45:57 10° 254° (WSW) 1,744 6.3 -5.2°
Maximum altitude 23:49:54 88° 346° (NNW) 520 2.0 -5.7°
Drops below altitude 10° 23:53:51 10° 74° (ENE) 1,735 4.0 -6.2°
Enters shadow 23:54:20 - 74° (ENE) 1,935 4.3 -6.3°
